This demonstration page uses our WeatherBlox Daily Observations layout. Learn more.

Left ArrowRight Arrow

39.92423, -83.80882

Hourly Observations for March 18, 2017

Temp ( °F °C ) Dew Point ( °F °C ) Humidity (%) Winds ( mph kmh ) Pressure ( in mb ) Visibility ( mi km ) Precip ( " mm )
12:56 am 00:56 Cloudy with Fog 36 2.2 36 2.2 100 100 SSW 5 7 30.06 1018 0.5 0.80467 0 0
1:24 am 01:24 Cloudy with Fog 37 3 36 2 93 93 SSW 7 11 30.09 1019 0.25 0.402335 0 0
1:56 am 01:56 Cloudy with Fog 37 2.8 36 2.2 96 96 SSW 8 13 30.06 1018 0.25 0.402335 0 0
2:56 am 02:56 Cloudy with Fog 38 3.3 38 3.3 100 100 SSW 6 9 30.07 1018 0.25 0.402335 0 0
3:36 am 03:36 Cloudy with Fog 39 4 37 3 93 93 SSW 9 15 30.06 1018 0.5 0.80467 0 0
3:43 am 03:43 Cloudy with Fog 39 4 39 4 100 100 SSW 10 17 30.06 1018 0.25 0.402335 0 0
3:56 am 03:56 Cloudy with Light Rain 39 3.9 39 3.9 100 100 SW 10 17 30.05 1018 0.25 0.402335 0 0.0254
4:13 am 04:13 Cloudy with Light Rain 39 4 39 4 100 100 SW 7 11 30.03 1017 0.5 0.80467 0 0.0254
4:36 am 04:36 Cloudy with Mist and Fog 39 4 39 4 100 100 SW 7 11 30.03 1017 0.75 1.207005 0 0.0254
4:40 am 04:40 Cloudy with Mist and Fog 39 4 39 4 100 100 SW 8 13 30.03 1017 1.25 2.011675 0 0.0254
4:49 am 04:49 Cloudy with Mist and Fog 39 4 39 4 100 100 SW 8 13 30.03 1017 2 3.21868 0 0.0254
4:56 am 04:56 Cloudy with Mist and Fog 41 5 40 4.4 96 96 SW 8 13 30.03 1017 2 3.21868 0 0.0254
5:18 am 05:18 Cloudy with Mist and Fog 41 5 41 5 100 100 SW 10 17 30.03 1017 2.5 4.02335 0 0
5:56 am 05:56 Cloudy with Mist and Fog 41 5 41 5 100 100 SW 12 19 30.03 1017 2.5 4.02335 0 0
6:06 am 06:06 Cloudy with Mist and Fog 41 5 39 4 93 93 WSW 12 19 30.03 1017 3 4.82802 0 0
6:45 am 06:45 Cloudy with Mist and Fog 41 5 39 4 93 93 WSW 10 17 30.03 1017 4 6.43736 0 0
6:56 am 06:56 Cloudy with Mist and Fog 41 5 40 4.4 96 96 WSW 10 17 30.03 1017 4 6.43736 0 0
7:09 am 07:09 Cloudy with Mist and Fog 41 5 39 4 93 93 WSW 10 17 30.03 1017 4 6.43736 0 0
7:56 am 07:56 Cloudy 41 5 38 3.3 89 89 W 14 22 30.04 1017 7 11.26538 0 0
8:48 am 08:48 Cloudy 39 4 36 2 87 87 W 14 22 30.06 1018 10 16.0934 0 0
8:56 am 08:56 Cloudy 39 3.9 35 1.7 86 86 WNW 15 24 30.05 1018 10 16.0934 0 0
9:56 am 09:56 Mostly Cloudy 40 4.4 35 1.7 83 83 WNW 15 24 30.06 1018 10 16.0934 0 0
10:03 am 10:03 Mostly Cloudy 39 4 36 2 87 87 WNW 15 24 30.06 1018 10 16.0934 0 0
10:56 am 10:56 Cloudy 38 3.3 34 1.1 86 86 W 14 22 30.08 1019 10 16.0934 0 0
11:34 am 11:34 Cloudy with Light Rain 37 3 34 1 87 87 W 15 24 30.12 1020 9 14.48406 0 0.0254
11:56 am 11:56 Cloudy with Light Rain 36 2.2 34 1.1 93 93 W 14 22 30.09 1019 7 11.26538 0 0.0254
12:12 pm 12:12 Cloudy with Light Rain 36 2 34 1 93 93 W 15 24 30.12 1020 6 9.65604 0 0.0254
12:56 pm 12:56 Cloudy 37 2.8 35 1.7 93 93 W 14 22 30.09 1019 9 14.48406 0 0.0254
1:56 pm 13:56 Cloudy 38 3.3 35 1.7 89 89 WNW 14 22 30.11 1020 10 16.0934 0 0
2:56 pm 14:56 Cloudy 38 3.3 35 1.7 89 89 WNW 15 24 30.11 1020 10 16.0934 0 0
3:44 pm 15:44 Cloudy with Light Rain 37 3 36 2 93 93 WNW 15 24 30.15 1021 2.5 4.02335 0 0.0254
3:56 pm 15:56 Cloudy with Light Rain 38 3.3 36 2.2 93 93 WNW 15 24 30.13 1020 4 6.43736 0 0.0254
4:56 pm 16:56 Cloudy with Light Rain 38 3.3 36 2.2 93 93 WNW 14 22 30.14 1021 7 11.26538 0 0.0254
5:24 pm 17:24 Cloudy with Light Rain 37 3 36 2 93 93 WNW 13 20 30.18 1022 10 16.0934 0 0.0254
5:56 pm 17:56 Cloudy with Light Rain 38 3.3 34 1.1 86 86 WNW 14 22 30.16 1022 10 16.0934 0 0.0254
6:03 pm 18:03 Cloudy with Light Rain 37 3 34 1 87 87 WNW 13 20 30.21 1023 10 16.0934 0 0.0254
6:56 pm 18:56 Cloudy 38 3.3 34 1.1 86 86 WNW 14 22 30.19 1022 10 16.0934 0 0.0254
7:56 pm 19:56 Cloudy 38 3.3 33 0.6 83 83 WNW 13 20 30.22 1023 10 16.0934 0 0.0254
8:56 pm 20:56 Cloudy with Light Rain 37 2.8 33 0.6 86 86 NW 10 17 30.23 1024 10 16.0934 0 0.0254
9:08 pm 21:08 Cloudy with Light Rain 37 3 34 1 87 87 WNW 10 17 30.27 1025 10 16.0934 0 0.0254
9:56 pm 21:56 Cloudy with Light Rain 37 2.8 33 0.6 86 86 NW 12 19 30.24 1024 10 16.0934 0 0.0254
10:26 pm 22:26 Cloudy 37 3 34 1 87 87 WNW 9 15 30.27 1025 10 16.0934 0 0.0254
10:56 pm 22:56 Cloudy 37 2.8 33 0.6 86 86 WNW 13 20 30.25 1024 10 16.0934 0 0.0254
11:18 pm 23:18 Cloudy 37 3 34 1 87 87 WNW 14 22 30.3 1026 10 16.0934 0 0
11:56 pm 23:56 Cloudy 37 2.8 33 0.6 86 86 NW 10 17 30.27 1025 10 16.0934 0 0

Powered by AerisWeather